User: anonymous   Login
Location: Edinburgh
(55.9500°N, 3.1600°W)
Time: 13:49:18
(UTC+01:00)
Language:

ISS - Orbit

View from above orbital plane
View from above orbital plane
View from above satellite
View from above satellite

Ground track
Ground track

The orbit data is extracted from the following two-line orbital elements,

1 25544U 98067A   17292.13732254  .00016717  00000-0  10270-3 0  9038
2 25544  51.6364 140.4260 0005181  33.9995 326.1489 15.54177544  1026
Epoch (UTC): 19 October 2017 03:17:44
Eccentricity: 0.0005181
inclination: 51.6364°
perigee height: 401 km
apogee height: 408 km
right ascension of ascending node: 140.4260°
argument of perigee: 33.9995°
revolutions per day: 15.54177544
mean anomaly at epoch: 326.1489°
orbit number at epoch: 102

The dashed part of the orbit path shows where the satellite is in the earth's shadow,  

DLR